Content
SEND FEEDBACK

Daily
Averages
Monthly
Summary
United States of America

MULLAN, IDAHO


Home > North America > United States > Idaho
Elevation: 1068 meters     Latitude: 47 28N     Longitude: 115 48W

WEATHER
 
SELECT A DAY
Number of Records: 289,300;   Date Range: 7/1/96 - 7/22/14
 
SHARE

PRINT THIS DATA

[ ← Previous Day ]
WEATHER ALMANAC - 5 FEBRUARY, 2013
[ Next Day → ]
[ °F ]   °C
Weather ElementAverageHighLow
Temperature-3.1 °C1.1 °C (12:53 pm)-4 °C (6:35 pm)
Dewpoint-3.7 °C-1.7 °C (9:53 am)-5 °C (7:09 pm)
Humidity96.2 %100 % (4:53 am)73 % (12:53 pm)
Barometer1009.5 hPa1014.9 hPa (1:53 am)1005.4 hPa (12:53 pm)
Wind Speed10.5 km/h18.5 km/h (7:09 pm)
Wind Gust40.7 km/h (5:53 pm)
Weather ElementAverage
Visibility5.8 km
Wind DirectionESE (101.5 °)

Weather ElementTotal
Precipitation5.59 mm
Heating Degree Days19.8 (Base 18.3)
Averaged from 75 records on 5 February, 2013
WEATHER CONDITIONS BREAKOUT
WIND DIRECTION BREAKOUT
WEATHER BY HOUR - 5 FEBRUARY, 2013
[ °F ]   °C
Local TimeTemperatureDewpointHumidityBarometerVisibilityWind DirectionWind SpeedGust SpeedPrecipitationEventsConditions
1:53 AM-3.3 °C-3.9 °C96 %1014.9 hPa16.1 kmSSW (200°)13 km/hOvercast
2:53 AM-3.3 °C-3.9 °C96 %1014.6 hPa16.1 kmVariable5.6 km/hOvercast
3:14 AM-3 °C-4 °C93 %1010.8 hPa16.1 kmVariable5.6 km/hOvercast
3:53 AM-3.3 °C-3.9 °C96 %1014.2 hPa12.9 kmSouth (190°)16.7 km/h25.9 km/hOvercast
4:25 AM-3 °C-4 °C93 %1010.8 hPa4.8 kmSSW (210°)13 km/h27.8 km/h0 mmSnowLight Snow
4:42 AM-3 °C-4 °C93 %1010.5 hPa6.4 kmSSW (200°)9.3 km/h0 mmSnowLight Snow
4:48 AM-3 °C-4 °C93 %1010.5 hPa4 kmVariable7.4 km/h0 mmSnowLight Snow
4:53 AM-3.3 °C-3.3 °C100 %1014.2 hPa2.4 kmCalm0 mmSnowLight Snow
5:00 AM-3 °C-3 °C100 %1010.5 hPa1.3 kmVariable7.4 km/h0 mmSnowLight Snow
5:53 AM-2.8 °C-3.3 °C96 %1012.9 hPa1.3 kmSouth (180°)13 km/h27.8 km/h0 mmSnowLight Snow
6:10 AM-3 °C-3 °C100 %1009.1 hPa0.8 kmSouth (180°)14.8 km/h0 mmFog-SnowLight Snow
6:23 AM-3 °C-3 °C100 %1009.1 hPa0.3 kmSouth (190°)13 km/h0 mmFogLight Freezing Fog
6:53 AM-2.8 °C-2.8 °C100 %1012.2 hPa0.3 kmSouth (190°)11.1 km/h0 mmFogLight Freezing Fog
7:24 AM-2 °C-2 °C100 %1009.1 hPa0.8 kmVariable7.4 km/hFogLight Freezing Fog
7:33 AM-2 °C-2 °C100 %1009.1 hPa0.3 kmVariable9.3 km/hFogLight Freezing Fog
7:53 AM-2.2 °C-2.2 °C100 %1012.2 hPa0.8 kmVariable11.1 km/hFogLight Freezing Fog
8:08 AM-2 °C-2 °C100 %1009.1 hPa2.4 kmVariable11.1 km/hOvercast
8:12 AM-2 °C-2 °C100 %1009.1 hPa6.4 kmSouth (190°)14.8 km/hOvercast
8:49 AM-2 °C-2 °C100 %1008.8 hPa16.1 kmVariable11.1 km/hMostly Cloudy
8:53 AM-2.2 °C-2.2 °C100 %1012.2 hPa16.1 kmVariable11.1 km/hMostly Cloudy
9:53 AM-1.1 °C-1.7 °C96 %1011.9 hPa16.1 kmVariable7.4 km/hOvercast
10:53 AM-1.7 °C-3.3 °C89 %1011.9 hPa16.1 kmSW (230°)13 km/h25.9 km/hOvercast
11:53 AM-0.6 °C-3.9 °C79 %1010.8 hPa16.1 kmSW (230°)14.8 km/h0.25 mmOvercast
12:53 PM1.1 °C-3.3 °C73 %1005.4 hPa16.1 kmVariable11.1 km/h2.03 mmOvercast
1:35 PM0 °C-3 °C80 %1007.1 hPa16.1 kmVariable5.6 km/h1.27 mmOvercast
1:53 PM-0.6 °C-3.9 °C79 %1009.5 hPa16.1 kmVariable9.3 km/h1.52 mmOvercast
2:53 PM-1.7 °C-3.9 °C85 %1010.2 hPa4 kmSW (220°)13 km/h0.51 mmSnowLight Snow
3:01 PM-2 °C-4 °C86 %1007.1 hPa8 kmSW (230°)11.1 km/h27.8 km/h0 mmSnowLight Snow
3:16 PM-2 °C-4 °C86 %1007.1 hPa2.9 kmSW (230°)14.8 km/h0 mmSnowLight Snow
3:22 PM-2 °C-3 °C93 %1007.5 hPa1.3 kmWSW (250°)13 km/h0 mmSnowLight Snow
3:27 PM-2 °C-3 °C93 %1007.5 hPa0.3 kmVariable9.3 km/h0 mmFog-SnowSnow
3:32 PM-2 °C-3 °C93 %1007.1 hPa0.3 kmVariable9.3 km/h0 mmFog-SnowSnow
3:53 PM-2.8 °C-2.8 °C100 %1010.2 hPa0.8 kmSW (230°)9.3 km/h0 mmFog-SnowSnow
4:53 PM-2.8 °C-2.8 °C100 %1010.2 hPa0.3 kmVariable9.3 km/h0 mmFog-SnowLight Snow
5:00 PM-3 °C-3 °C100 %1007.5 hPa0.8 kmSW (230°)11.1 km/h0 mmFog-SnowLight Snow
5:53 PM-3.3 °C-3.3 °C100 %1010.8 hPa1.3 kmWSW (240°)14.8 km/h40.7 km/h0 mmSnowLight Snow
6:10 PM-3 °C-4 °C93 %1007.8 hPa4.8 kmVariable9.3 km/h33.3 km/h0 mmSnowLight Snow
6:17 PM-3 °C-4 °C93 %1007.8 hPa2.9 kmVariable7.4 km/h0 mmSnowLight Snow
6:24 PM-3 °C-4 °C93 %1007.8 hPa1.3 kmWest (270°)13 km/h29.6 km/h0 mmSnowLight Snow
6:35 PM-4 °C-4 °C100 %1008.1 hPa1.6 kmWest (260°)13 km/h33.3 km/h0 mmSnowLight Snow
6:44 PM-4 °C-4 °C100 %1007.8 hPa3.2 kmVariable9.3 km/h0 mmSnowLight Snow
6:53 PM-3.9 °C-4.4 °C96 %1011.5 hPa3.2 kmVariable9.3 km/h0 mmSnowLight Snow
6:55 PM-4 °C-4 °C100 %1008.1 hPa1.9 kmWSW (250°)13 km/h0 mmSnowLight Snow
7:02 PM-4 °C-4 °C100 %1008.1 hPa1.9 kmWest (260°)13 km/h0 mmSnowLight Snow
7:05 PM-4 °C-4 °C100 %1008.1 hPa3.2 kmVariable11.1 km/h0 mmSnowLight Snow
7:09 PM-4 °C-5 °C93 %1008.1 hPa6.4 kmWest (280°)18.5 km/h35.2 km/h0 mmSnowLight Snow
7:18 PM-4 °C-5 °C93 %1008.1 hPa11.3 kmNW (310°)16.7 km/h35.2 km/h0 mmSnowLight Snow
7:28 PM-4 °C-4 °C100 %1007.8 hPa4 kmWNW (300°)13 km/h33.3 km/h0 mmSnowLight Snow
7:31 PM-4 °C-4 °C100 %1007.8 hPa2.4 kmVariable11.1 km/h33.3 km/h0 mmSnowLight Snow
7:34 PM-4 °C-4 °C100 %1007.8 hPa1.3 kmVariable9.3 km/h33.3 km/h0 mmSnowLight Snow
7:43 PM-4 °C-4 °C100 %1007.8 hPa0.8 kmWest (260°)13 km/h0 mmFog-SnowLight Snow
7:53 PM-3.9 °C-4.4 °C96 %1011.2 hPa1.3 kmWest (270°)13 km/h27.8 km/h0 mmSnowLight Snow
7:57 PM-4 °C-4 °C100 %1007.8 hPa2.9 kmVariable11.1 km/h35.2 km/h0 mmSnowLight Snow
7:59 PM-4 °C-4 °C100 %1008.1 hPa4.8 kmVariable7.4 km/h35.2 km/h0 mmSnowLight Snow
8:08 PM-4 °C-4 °C100 %1007.8 hPa2.9 kmVariable7.4 km/h0 mmSnowLight Snow
8:16 PM-4 °C-4 °C100 %1008.1 hPa1.6 kmVariable11.1 km/h0 mmSnowLight Snow
8:22 PM-4 °C-4 °C100 %1008.1 hPa3.2 kmVariable11.1 km/h0 mmSnowLight Snow
8:25 PM-4 °C-4 °C100 %1008.1 hPa4.8 kmVariable7.4 km/h0 mmSnowLight Snow
8:31 PM-4 °C-4 °C100 %1008.1 hPa2.9 kmVariable5.6 km/h0 mmSnowLight Snow
8:38 PM-4 °C-4 °C100 %1008.1 hPa1.6 kmWNW (300°)5.6 km/h0 mmSnowLight Snow
8:44 PM-4 °C-4 °C100 %1008.1 hPa3.2 kmVariable11.1 km/h0 mmSnowLight Snow
8:51 PM-4 °C-4 °C100 %1008.5 hPa2.9 kmVariable7.4 km/h0 mmSnowLight Snow
8:53 PM-3.9 °C-4.4 °C96 %1011.5 hPa1.9 kmVariable9.3 km/h0 mmSnowLight Snow
9:06 PM-4 °C-4 °C100 %1008.5 hPa3.2 kmCalm0 mmSnowLight Snow
9:09 PM-4 °C-4 °C100 %1008.5 hPa1.9 kmVariable7.4 km/h0 mmSnowLight Snow
9:18 PM-4 °C-4 °C100 %1008.8 hPa3.2 kmVariable11.1 km/h0 mmSnowLight Snow
9:21 PM-4 °C-4 °C100 %1008.8 hPa9.7 kmVariable5.6 km/h0 mmSnowLight Snow
9:32 PM-4 °C-4 °C100 %1008.8 hPa12.9 kmVariable11.1 km/h0 mmSnowLight Snow
9:53 PM-3.9 °C-4.4 °C96 %1011.9 hPa9.7 kmVariable7.4 km/h0 mmSnowLight Snow
10:17 PM-4 °C-4 °C100 %1009.1 hPa16.1 kmWSW (240°)13 km/h27.8 km/h0 mmRainLight Freezing Rain
10:45 PM-4 °C-4 °C100 %1009.5 hPa16.1 kmWSW (250°)9.3 km/h0 mmOvercast
11:20 PM-4 °C-5 °C93 %1009.5 hPa16.1 kmVariable9.3 km/h0 mmRainLight Freezing Rain
11:29 PM-4 °C-5 °C93 %1009.5 hPa8 kmWest (270°)16.7 km/h35.2 km/h0 mmSnowLight Snow
11:48 PM-4 °C-5 °C93 %1009.1 hPa2.9 kmWest (270°)13 km/h35.2 km/h0 mmSnowLight Snow
11:53 PM-3.9 °C-4.4 °C96 %1012.2 hPa1.9 kmVariable7.4 km/h35.2 km/h0 mmSnowLight Snow
Hourly data recorded from KMLP, located 0 kilometers away from Mullan, Idaho







STORIES FROM OUR PARTNERS